Location: Auckland
(36.8670°S, 174.7670°E)
Time: 19:21:29
(UTC+13:00)

Meteor 1-27 - Pass Details

Date: 24 January 2019
Orbit: 839 x 891 km, 81.2° (Epoch: 21 February)

Event Time Altitude Azimuth Distance (km) Brightness Sun altitude
Rises 21:01:59 0° 353° (N) 3,459 7.2 -5.1°
Reaches altitude 10° 21:04:24 10° 353° (N) 2,535 6.5 -5.5°
Maximum altitude 21:10:11 89° 266° (W) 901 4.4 -6.5°
Drops below altitude 10° 21:16:07 10° 172° (S) 2,589 7.0 -7.5°
Sets 21:18:36 0° 171° (S) 3,537 7.7 -8.0°
